Wind_Speed
43 41 40 35 37 39 36 33 19 5 8 18 21 28 35 42 46 44 44 43 41 41 40 41 40 40 37 34 32 30 29 28 25 25 23 21 18 16
40 40 41 36 34 35 40 37 33 27 9 25 30 30 29 32 35 40 44 45 43 43 44 44 44 44 44 41 37 34 33 31 29 28 25 24 22 19
36 38 40 43 37 39 39 38 36 33 20 22 27 26 29 30 32 34 36 40 43 45 44 47 47 49 48 46 44 39 36 35 32 31 31 29 26 22
37 36 39 36 39 36 35 36 36 36 31 26 23 26 30 33 34 34 36 37 39 42 44 47 51 52 51 50 49 44 39 40 38 36 35 33 29 25
37 37 38 38 36 36 35 35 36 37 34 31 26 23 28 28 31 33 36 38 39 40 41 43 47 52 54 55 53 51 47 43 42 40 40 35 31 29
38 37 35 29 31 33 31 35 34 31 30 30 30 22 25 27 31 33 30 36 39 40 41 43 41 47 53 58 57 55 52 47 47 44 43 37 34 32
40 48 43 41 45 43 40 37 35 31 28 26 24 23 19 16 28 29 25 28 32 36 34 38 38 42 47 54 58 58 57 54 50 48 45 40 37 35
32 37 37 38 42 47 47 44 43 39 34 26 24 22 27 29 28 27 22 17 7 29 33 32 36 40 42 47 52 63 63 60 55 53 49 44 42 38
8 17 31 35 39 43 44 46 45 46 44 35 32 32 30 36 35 28 28 27 24 20 26 24 31 36 38 45 47 55 61 62 59 56 52 48 46 40
12 13 10 16 32 38 38 43 43 45 46 46 40 34 37 37 40 43 40 31 26 24 26 16 23 27 32 37 42 48 54 57 58 57 54 50 48 42
12 13 14 16 11 26 36 34 35 39 45 49 48 46 41 38 37 33 26 25 9 14 27 18 14 23 25 30 34 36 40 49 51 57 57 54 51 44
13 14 13 14 17 14 27 30 25 30 36 37 36 37 45 46 41 38 38 27 14 7 23 23 16 17 5 19 25 28 30 38 46 51 55 56 50 45
16 17 15 13 14 17 21 24 25 31 33 34 35 35 35 37 35 37 39 36 30 14 18 32 20 22 7 4 14 22 29 33 40 47 52 56 51 52
19 16 15 14 16 17 21 22 23 26 28 29 28 25 26 30 34 35 37 35 33 31 24 37 14 24 17 8 5 17 23 28 35 40 44 49 53 52
19 15 16 16 16 17 19 21 21 22 28 26 25 25 25 25 25 27 26 27 24 16 15 29 24 24 23 13 10 13 19 20 29 34 37 39 44 43
17 14 19 16 14 16 15 16 19 21 27 29 25 22 20 21 24 27 24 24 21 15 17 20 20 15 19 12 13 17 17 12 27 30 34 34 35 41
14 12 15 12 12 14 12 13 17 19 21 22 21 22 22 24 25 27 27 28 17 22 19 17 16 12 10 13 11 15 21 16 20 28 30 29 34 34
15 14 19 18 16 18 15 13 14 16 18 20 21 21 20 22 26 27 30 26 24 23 24 24 24 19 13 7 6 16 15 17 18 23 24 21 23 30
18 20 20 19 19 18 18 19 17 17 17 19 23 23 22 21 22 22 24 25 22 23 22 26 24 21 5 3 7 10 17 17 19 20 22 22 17 28
21 21 19 20 20 20 20 21 19 20 21 22 22 23 23 25 22 20 21 23 22 21 19 22 21 20 11 6 7 10 14 16 20 18 17 16 13 17
22 21 22 22 22 22 23 22 23 23 24 23 22 24 25 23 20 22 23 24 26 21 17 15 18 18 13 13 9 9 15 12 15 21 21 19 14 12
23 22 23 23 24 25 25 25 24 25 24 23 23 24 26 26 24 23 22 22 20 22 20 21 19 18 16 9 9 11 16 15 12 10 14 18 10 10
24 24 24 25 26 27 27 27 26 26 26 26 26 25 25 25 26 24 23 22 24 22 24 22 20 17 12 12 12 12 14 19 16 14 14 17 12 8
Wind_Direction
209 210 211 215 215 221 222 214 203 177 219 223 217 233 238 242 244 243 244 243 236 233 231 229 228 228 228 227 221 221 216 215 215 212 209 206 204 200
208 207 210 214 215 216 216 218 217 226 238 222 228 230 235 238 243 246 246 245 245 239 234 232 230 230 230 228 226 222 218 217 216 215 209 211 205 204
208 209 211 211 211 213 217 216 218 220 227 239 236 232 230 233 236 241 244 245 246 245 240 235 232 232 230 229 227 222 218 218 218 217 215 214 212 209
211 212 214 215 213 214 214 215 215 219 217 235 225 221 224 233 238 238 239 242 244 247 245 239 234 233 231 230 227 223 221 219 219 220 220 215 215 212
217 214 218 217 218 213 209 214 216 220 216 224 233 227 224 229 228 235 238 240 243 246 247 244 238 234 233 230 229 223 223 224 219 218 221 217 217 214
225 222 219 226 228 216 214 217 218 218 215 213 226 221 219 224 226 222 227 236 240 243 243 243 237 237 237 232 229 226 228 226 221 219 218 217 215 214
220 222 233 231 226 221 222 219 218 217 217 213 221 225 214 204 210 222 220 230 238 241 241 244 242 235 235 236 232 230 231 227 223 218 217 216 214 214
218 223 228 227 232 229 226 223 220 215 218 214 214 219 221 222 228 219 213 205 231 233 230 235 238 232 234 236 233 231 231 228 222 219 216 213 213 213
237 231 232 231 232 231 227 224 225 227 225 219 215 211 219 219 223 219 217 221 224 239 220 225 231 229 236 237 238 233 231 228 223 219 214 211 211 213
269 257 254 239 234 227 224 228 232 231 229 229 225 225 228 230 230 232 228 224 224 225 219 209 222 220 229 231 235 233 228 228 226 222 214 211 209 211
282 277 263 260 250 244 236 230 237 238 241 237 237 239 238 240 238 221 201 188 198 202 203 207 199 208 221 226 232 233 229 230 227 223 215 210 208 210
291 281 275 265 258 257 246 233 230 235 240 241 238 244 247 249 243 233 220 199 186 185 207 190 182 194 202 228 229 229 228 230 226 222 220 211 206 201
289 288 293 289 268 261 256 249 239 244 248 250 252 244 243 235 231 231 226 214 198 208 208 190 182 181 164 141 202 218 219 219 222 217 221 213 206 201
275 286 284 282 272 268 266 259 255 248 251 245 238 234 229 229 229 227 220 218 225 231 218 195 191 184 167 141 161 203 211 217 213 206 204 210 208 203
267 271 266 260 260 265 262 267 261 246 241 225 222 223 219 218 211 206 206 207 209 215 212 202 210 194 190 166 157 178 176 197 203 200 197 198 194 194
249 268 272 260 261 260 260 256 250 243 236 231 226 218 204 186 187 193 174 178 166 153 181 198 206 194 174 173 170 167 190 174 197 200 198 194 191 196
239 236 248 244 244 243 238 232 231 227 225 220 211 196 185 174 174 179 173 166 158 150 148 166 174 170 174 184 149 179 188 189 195 196 194 191 200 207
216 224 229 226 220 233 217 210 213 211 212 204 193 187 171 166 162 169 167 166 149 152 150 157 158 136 121 130 177 180 187 197 201 206 197 190 198 211
219 231 225 219 214 220 220 210 197 199 198 191 186 176 166 164 151 148 146 147 138 146 152 160 161 149 126 133 171 194 187 193 193 192 201 202 204 213
220 222 219 221 214 203 204 202 192 181 182 182 175 165 162 154 148 143 147 141 141 141 147 163 164 160 158 149 142 177 196 201 191 185 186 195 210 223
215 220 217 210 203 200 196 194 180 174 169 163 160 154 151 147 140 142 141 143 139 139 142 154 166 174 153 145 124 146 182 197 211 195 189 182 167 179
213 210 211 207 197 188 181 176 167 165 158 153 152 152 150 150 142 136 141 140 141 142 142 163 170 170 162 163 148 152 176 178 189 198 210 195 176 190
208 201 201 197 190 177 171 166 164 158 156 152 151 151 152 144 146 149 154 158 151 147 153 151 160 170 166 171 163 161 171 177 173 172 188 199 190 152
Height
772 779 783 788 792 795 800 804 809 822 822 818 822 823 826 829 832 837 842 846 852 855 860 864 867 871 875 878 883 886 890 892 895 897 900 904 908 911
763 769 773 779 784 788 790 796 800 804 807 806 808 811 816 819 822 826 829 835 840 846 850 854 859 862 864 870 874 879 883 888 891 894 896 898 902 904
756 760 762 766 771 776 781 787 790 795 798 797 800 804 808 811 813 817 821 824 828 833 839 843 847 850 854 860 865 870 876 881 885 889 890 891 894 897
749 754 754 760 764 768 774 777 781 784 789 790 793 796 799 802 806 809 811 814 817 819 823 830 834 839 844 849 855 860 865 869 871 881 885 886 889 892
740 744 748 752 758 760 761 768 772 776 779 783 785 789 793 795 799 802 802 804 806 809 812 817 822 828 833 839 841 849 853 857 864 870 878 880 884 886
731 738 740 746 745 749 753 759 765 769 773 774 775 779 782 786 790 791 794 797 800 803 803 805 812 817 822 828 832 837 842 846 854 860 867 871 876 880
723 726 722 728 736 739 741 747 753 759 763 763 767 772 774 778 778 780 786 790 793 797 801 802 806 806 809 816 822 826 830 834 844 851 858 864 869 874
714 715 718 723 728 732 737 742 742 747 751 751 757 762 764 765 770 773 780 784 789 789 790 791 795 797 798 803 807 813 812 819 829 841 846 853 861 867
709 711 712 715 719 724 728 732 732 734 738 741 746 746 751 755 759 765 771 774 770 778 784 787 787 788 787 792 796 801 806 810 817 826 835 841 850 859
707 707 708 709 711 714 718 722 724 727 732 735 731 736 739 745 748 750 756 762 767 772 777 780 778 777 786 789 791 795 798 802 810 819 828 836 842 849
704 705 705 705 707 709 710 711 715 719 723 724 725 728 733 737 743 747 750 759 765 766 764 769 771 775 781 784 786 788 793 800 805 811 818 824 834 842
697 698 700 700 701 702 702 704 705 710 713 715 717 719 725 728 734 737 740 748 753 759 759 760 763 774 780 778 780 784 789 794 798 804 811 818 825 836
691 691 692 695 694 694 697 698 700 703 706 708 709 711 714 718 726 730 729 736 740 745 747 753 761 766 769 772 775 783 787 789 795 800 804 810 817 823
689 686 688 688 689 687 690 692 694 697 700 700 702 704 707 711 715 720 723 728 734 737 741 748 751 755 759 769 776 781 784 787 791 794 802 807 811 817
690 686 685 686 684 686 688 688 688 688 692 696 696 697 699 704 710 716 720 723 731 738 742 746 747 750 756 761 772 777 783 788 790 792 799 805 810 814
677 680 683 673 675 679 678 680 685 684 688 688 692 697 699 696 703 711 717 723 727 736 740 746 751 751 755 762 767 776 780 785 788 793 796 804 809 810
671 670 677 670 670 674 673 675 681 681 681 685 691 694 696 693 698 704 711 718 725 732 738 743 749 753 756 761 768 773 778 785 789 791 795 801 805 808
665 668 670 667 666 672 670 671 677 677 679 682 686 690 693 695 696 700 705 715 721 731 736 741 744 750 759 765 768 774 776 782 789 794 796 801 805 807
660 662 663 659 660 662 667 670 671 676 679 682 686 687 688 699 698 700 701 712 722 729 734 739 746 748 756 764 770 771 774 779 788 793 796 800 801 804
650 656 653 654 656 656 662 669 668 672 678 685 685 683 689 692 700 701 707 708 719 726 735 742 747 747 753 759 766 770 772 779 785 791 796 801 802 805
647 649 647 649 652 655 658 664 665 673 673 679 688 682 684 693 699 702 706 713 715 727 738 745 748 750 754 761 766 769 773 779 783 786 792 797 800 803
640 643 643 644 647 651 654 659 665 672 672 675 683 686 684 689 697 702 712 717 721 726 734 748 748 750 753 759 764 770 775 778 782 786 790 792 795 797
632 635 638 642 646 643 651 659 666 666 668 673 679 685 688 693 692 702 714 724 724 729 735 742 745 750 753 760 767 772 775 778 780 784 790 792 793 793